カタログに戻る

ELECTRON KICK STAGE R/B

運用中SSO
NORAD 60085·ROCKET BODY·🇺🇸 United States

打ち上げ Jun 20, 2024 から Rocket Lab Launch Complex 1

Loading…

次のパス (今後24時間)

TLE

最新Source: Space-Track

元期: Sep 14, 2026, 02:51 UTC

1 60085U 24114G   26257.11876579  .00007372  00000-0  37676-3 0  9998
2 60085  97.9289 314.8288 0063314 153.7463 206.7001 15.15228444122855

AllMySatでELECTRON KICK STAGE R/Bをリアルタイム追跡

Download on the App Store